Terminal Aerodrome Forecast
Issued by NWS Missoula, MT

Home | Current Version | Previous Version | Text Only | Print | Product List | Glossary On
Versions: 1 2 3 4 5 6 7 8 9 10 11 12 13 14 15 16
000
FTUS45 KMSO 240500
TAFBTM
TAF
KBTM 240531Z 2406/2506 20005KT P6SM BKN090
     FM240900 30010KT P6SM SCT100
     FM241800 27018G28KT P6SM SCT120
     FM250300 32010KT P6SM SKC=

USA.gov is the U.S. government's official web portal to all federal, state and local government web resources and services.